DB0LS-15 Weather Reports


time (UTC)temp
F
wind
direction
speed
knots
gust
knots
rain 1hr
in
rain 24hr
in
rain mn
in
humidity
%
barometer
mb
20260507191518 45 44 1.7 3.5 0.00 0.52 0.52 98 999.4
20260507190615 45 53 1.7 6.1 0.00 0.52 0.52 98 999.2
20260507185611 45 18 2.6 5.2 0.00 0.52 0.52 98 999.3
20260507184607 45 33 1.7 3.5 0.00 0.52 0.52 98 999.0
20260507183603 45 26 3.5 7.0 0.00 0.52 0.52 98 998.8
20260507182559 45 41 2.6 6.1 0.00 0.52 0.52 98 998.9
20260507181555 45 26 2.6 6.1 0.00 0.52 0.52 98 998.8
20260507180552 45 43 1.7 3.5 0.00 0.52 0.52 98 998.7
20260507175548 45 34 2.6 5.2 0.00 0.52 0.52 98 998.6
20260507174544 46 53 1.7 5.2 0.00 0.52 0.52 97 998.5
20260507173540 46 34 1.7 3.5 0.00 0.52 0.52 97 998.3
20260507172536 46 52 1.7 3.5 0.00 0.52 0.52 97 998.3
20260507171533 46 45 3.5 6.1 0.00 0.52 0.52 97 998.2
20260507170529 46 44 1.7 5.2 0.00 0.52 0.52 97 998.2
20260507165525 46 49 2.6 5.2 0.00 0.52 0.52 97 998.0
20260507164521 46 38 2.6 5.2 0.00 0.52 0.52 97 998.1
20260507163517 46 36 3.5 6.1 0.00 0.52 0.52 97 998.0
20260507162613 46 23 4.3 7.0 0.00 0.52 0.52 97 997.9
20260507161610 46 53 4.3 7.0 0.00 0.52 0.52 96 997.9
20260507160606 46 47 2.6 5.2 0.00 0.52 0.52 96 997.9
20260507155602 46 34 4.3 9.6 0.00 0.52 0.52 97 997.8
20260507154558 46 45 3.5 6.1 0.00 0.52 0.52 97 997.8
20260507153554 46 48 4.3 7.0 0.00 0.52 0.52 97 997.7
20260507152550 46 57 2.6 7.0 0.00 0.52 0.52 97 997.8
20260507151547 46 31 2.6 5.2 0.01 0.52 0.52 97 997.7
20260507150543 46 26 3.5 6.1 0.01 0.52 0.52 97 997.5
20260507145539 46 34 4.3 7.0 0.01 0.52 0.52 97 997.6
20260507144535 47 56 3.5 5.2 0.01 0.52 0.52 97 997.4
20260507143531 47 57 2.6 7.0 0.01 0.52 0.52 97 997.4
20260507142527 47 41 4.3 7.0 0.01 0.52 0.52 97 997.4
20260507141524 47 34 3.5 7.0 0.01 0.51 0.51 97 997.4
20260507140520 47 37 2.6 6.1 0.02 0.51 0.51 97 997.2
20260507135516 46 31 5.2 7.8 0.05 0.51 0.51 97 997.2
20260507134612 47 32 3.5 7.8 0.07 0.51 0.51 97 997.1
20260507133609 46 33 3.5 6.1 0.08 0.51 0.51 97 997.1
20260507132605 47 19 2.6 5.2 0.08 0.51 0.51 97 997.0
20260507131601 46 27 2.6 6.1 0.07 0.50 0.50 97 997.0
20260507130557 46 46 3.5 5.2 0.06 0.48 0.48 96 996.8
20260507125553 46 21 2.6 7.0 0.04 0.46 0.46 96 996.7
20260507124550 47 31 2.6 6.1 0.01 0.44 0.44 96 996.6
20260507123546 47 40 2.6 6.1 0.00 0.43 0.43 95 996.6
20260507122542 46 34 4.3 6.1 0.00 0.43 0.43 95 996.4
20260507121538 46 23 4.3 7.8 0.00 0.43 0.43 96 996.3
20260507120534 46 51 2.6 6.1 0.00 0.43 0.43 96 996.2
20260507115530 46 57 4.3 7.0 0.00 0.43 0.43 96 996.2
20260507114526 47 49 1.7 3.5 0.00 0.43 0.43 96 996.1
20260507113523 46 43 2.6 6.1 0.00 0.43 0.43 96 996.0
20260507112519 47 48 3.5 5.2 0.00 0.43 0.43 96 995.8
20260507111515 46 53 3.5 9.6 0.00 0.43 0.43 96 995.7
20260507110612 46 65 5.2 7.8 0.00 0.43 0.43 96 995.7
20260507105608 46 51 3.5 6.1 0.00 0.43 0.43 96 995.7
20260507104604 46 57 3.5 7.8 0.01 0.43 0.43 97 995.6
20260507103600 46 53 6.1 9.6 0.01 0.43 0.43 97 995.5
20260507102557 46 29 4.3 9.6 0.02 0.43 0.43 98 995.4
20260507101553 46 54 6.1 11.3 0.02 0.43 0.43 98 995.3
20260507100549 46 45 4.3 7.8 0.02 0.43 0.43 98 995.3
20260507095545 46 52 3.5 7.8 0.04 0.43 0.43 99 995.4
20260507094541 45 61 5.2 9.6 0.05 0.41 0.41 99 995.2
20260507093538 45 45 3.5 7.0 0.08 0.41 0.41 99 995.1
20260507092534 45 41 2.6 5.2 0.08 0.40 0.40 99 995.0
20260507091530 45 43 3.5 6.1 0.08 0.40 0.40 99 995.0
20260507090526 45 57 5.2 7.0 0.09 0.40 0.40 99 994.6
20260507085522 45 43 2.6 3.5 0.09 0.39 0.39 99 994.7
20260507084518 45 36 3.5 6.1 0.08 0.37 0.37 99 994.4
20260507083615 45 43 3.5 7.0 0.05 0.33 0.33 99 994.4
20260507082611 45 41 2.6 3.5 0.05 0.32 0.32 99 994.4
20260507081607 45 54 3.5 6.1 0.06 0.32 0.32 99 994.2
20260507080603 45 40 4.3 7.0 0.05 0.31 0.31 99 994.0
20260507075559 45 41 3.5 7.8 0.05 0.30 0.30 99 994.0
20260507074556 45 47 3.5 7.8 0.05 0.28 0.28 99 993.7
20260507073552 45 52 4.3 9.6 0.06 0.28 0.28 99 993.7
20260507072548 45 32 4.3 9.6 0.06 0.27 0.27 99 993.7
20260507071544 44 45 5.2 9.6 0.05 0.26 0.26 99 993.6
20260507070540 45 44 2.6 5.2 0.05 0.26 0.26 99 993.4
20260507065537 45 53 2.6 5.2 0.04 0.25 0.25 99 993.4
20260507064533 45 38 2.6 5.2 0.02 0.24 0.24 99 993.3
20260507063529 44 46 4.3 9.6 0.01 0.22 0.22 99 993.1
20260507062525 45 39 2.6 6.1 0.00 0.21 0.21 99 992.9
20260507061521 44 47 3.5 7.8 0.00 0.21 0.21 99 992.9
20260507060517 44 48 4.3 7.8 0.00 0.21 0.21 99 992.8
20260507055614 45 56 3.5 7.0 0.00 0.21 0.21 99 992.6
20260507054610 44 26 5.2 7.0 0.00 0.21 0.21 99 992.5
20260507053606 44 50 4.3 7.8 0.00 0.21 0.21 99 992.4
20260507052602 44 40 3.5 7.0 0.00 0.21 0.21 99 992.4
20260507051558 45 36 4.3 6.1 0.01 0.21 0.21 99 992.3
20260507050554 45 44 3.5 6.1 0.01 0.21 0.21 99 992.3
20260507045551 45 38 3.5 7.0 0.01 0.21 0.21 99 992.2
20260507044547 45 45 4.3 7.8 0.01 0.21 0.21 98 992.2
20260507043543 45 34 4.3 7.8 0.01 0.21 0.21 98 992.0
20260507042540 46 52 3.5 6.1 0.01 0.21 0.21 98 991.9
20260507041536 46 29 2.6 6.1 0.00 0.20 0.20 98 991.9
20260507040532 46 47 2.6 5.2 0.00 0.20 0.20 98 991.8
20260507035528 46 35 2.6 6.1 0.00 0.20 0.20 98 991.6
20260507034524 46 39 0.9 3.5 0.00 0.20 0.20 98 991.5
20260507033520 46 31 1.7 5.2 0.00 0.20 0.20 98 991.4
20260507032517 46 49 2.6 5.2 0.00 0.20 0.20 98 991.3
20260507031613 46 42 0.9 3.5 0.00 0.20 0.20 98 991.3
20260507030609 46 43 3.5 6.1 0.00 0.20 0.20 98 991.2
20260507025605 46 37 2.6 5.2 0.00 0.20 0.20 98 991.2
20260507024601 46 36 1.7 5.2 0.00 0.20 0.20 98 991.0
20260507023558 46 30 1.7 3.5 0.00 0.20 0.20 98 991.0
20260507022554 46 34 2.6 3.5 0.00 0.20 0.20 98 990.9
20260507021550 46 32 2.6 6.1 0.00 0.20 0.20 98 990.8
20260507020546 47 57 2.6 6.1 0.01 0.20 0.20 98 990.7
20260507015542 47 38 3.5 7.0 0.01 0.20 0.20 98 990.5
20260507014539 47 48 3.5 6.1 0.02 0.20 0.20 98 990.5
20260507013535 47 73 2.6 5.2 0.05 0.20 0.20 98 990.4
20260507012531 47 36 4.3 7.8 0.07 0.20 0.20 98 990.1
20260507011527 47 47 6.1 12.2 0.08 0.20 0.20 98 990.0
20260507010523 47 52 7.0 9.6 0.08 0.19 0.19 98 989.9
20260507005519 47 36 6.1 9.6 0.09 0.19 0.19 97 990.1
20260507004516 48 57 4.3 9.6 0.11 0.18 0.18 97 990.3
20260507003612 48 41 2.6 5.2 0.09 0.15 0.15 97 990.2
20260507002608 48 47 4.3 7.0 0.08 0.13 0.13 97 990.0
20260507001604 48 56 5.2 9.6 0.08 0.12 0.12 97 989.9
20260507000601 48 90 3.5 5.2 0.09 0.13 0.11 97 990.2
20260506235557 48 59 3.5 7.8 0.09 0.12 0.09 96 990.2
20260506234553 49 62 2.6 5.2 0.07 0.11 0.07 96 990.3
20260506233549 49 63 2.6 3.5 0.06 0.11 0.06 95 990.3
20260506232545 49 52 3.5 6.1 0.05 0.09 0.05 95 990.3
20260506231541 49 54 2.6 5.2 0.04 0.09 0.04 94 990.2
20260506230537 49 37 1.7 3.5 0.01 0.08 0.01 93 990.3
20260506225533 50 44 1.7 5.2 0.00 0.12 0.00 92 990.3
20260506224600 50 37 2.6 6.1 0.00 0.40 0.00 92 990.2
20260506223556 50 39 2.6 3.5 0.00 0.46 0.00 92 990.1
20260506222552 50 29 1.7 3.5 0.00 0.53 0.00 92 990.0
20260506221548 50 41 0.9 3.5 0.00 0.59 0.00 92 990.0
20260506220544 50 68 3.5 6.1 0.00 0.61 0.00 93 989.6
20260506215541 50 45 3.5 7.0 0.00 0.71 0.71 92 989.7
20260506214536 51 47 1.7 5.2 0.00 0.78 0.71 92 989.7
20260506213533 51 44 5.2 9.6 0.00 0.78 0.71 92 989.6
20260506212529 51 63 4.3 7.8 0.00 0.78 0.71 92 989.4
20260506211525 51 38 4.3 9.6 0.00 0.78 0.71 92 989.3
20260506210521 51 50 3.5 6.1 0.00 0.78 0.71 92 989.1
20260506205517 52 53 3.5 6.1 0.00 0.78 0.71 92 989.2
20260506204614 52 43 2.6 6.1 0.00 0.78 0.71 92 989.1
20260506203610 52 40 2.6 5.2 0.00 0.78 0.71 93 989.2
20260506202607 52 42 4.3 6.1 0.00 0.78 0.71 93 989.0
20260506201603 52 51 5.2 11.3 0.00 0.78 0.71 93 988.8
20260506200559 52 41 4.3 7.8 0.00 0.78 0.71 93 988.7
20260506195555 52 23 3.5 7.8 0.00 0.78 0.71 93 988.6
20260506194552 52 21 4.3 7.0 0.00 0.78 0.71 93 988.6
20260506193548 52 41 4.3 7.8 0.00 0.78 0.71 93 988.5
20260506192544 53 37 2.6 5.2 0.00 0.78 0.71 92 988.3